STARLINK-4325, 53068

Orbit data source: Space-Track

STARLINK-4325, 53068 is a payload satellite owned by SpaceX/Seattle (US) in SSO that was launched on Mon, 11 Jul 2022 UTC via an FALCON 9 launch vehicle from the Air Force Western Test Range (AFWTR). Payload-class satellites include a variety of spacecraft equipped with specific instruments for various scientific and technological missions. These include communications satellites like Starlink; space stations such as the ISS; scientific satellites like the Hubble; Earth observation satellites from companies like Planet Labs, Umbra, and HawkEye 360; GPS; miniature CubeSats for education and research; and military/defense satellites.

Loading next visibility...
Identifier
53068, 2022-077AB
Orbit
SSO
Country
Flag of USUS
Related business
Manufacturer
SpaceX/Seattle
Mission
Operational Commercial Communications
Bus & Motor
STARLINK, Unknown motor
Mass
297 kg wet, ~275 kg dry
Launch date (UTC)
2022-07-11 (3 years ago)
Launch vehicle
FALCON 9
Launch site
Air Force Western Test Range (AFWTR)
Object type
Payload
Rocket body
Debris
Shape & HBR
Box + 1 Pan, 10.1 m
Radar Cross Section
13.562 m², Large (>1 m²)

Expand to show TLE details & history
Last TLE update: 22 hours ago

TLE from 22 hours ago
0 STARLINK-4325
1 53068U 22077AB  25348.76753172  .00000111  00000-0  11921-4 0  9991
2 53068  97.6032 167.5133 0001991  84.7146 275.4308 15.05645451188201
Epoch: 2025-12-14T18:25Z
TLE epoch observation values (Epoch: 2025-12-14T18:25:14.740Z)
Latitude
-0.00002°
Longitude
167.52616°
Altitude
552.46 km
Speed
7.586 km/s
True Right ascension
11h 10m 03s
True Declination
0° 00' 00"
Sunlit
Object was in daylight at epoch
Visualization orbit readout
Latitude
Unknown
Longitude
Unknown
Altitude
Unknown
Speed
Unknown
Apparent Right ascension
Unknown
Apparent Declination
Unknown
Sunlit
N/A
Visualization observer readout
Local Sidereal Time
15:08:57
Azimuth
Unknown
Elevation
Unknown
Doppler factor
Unknown
Orbital elements
Apogee altitude
547.897 km
Perigee altitude
545.14 km
Semi-major axis
6,924.656 km
Eccentricity
0.0002
Inclination
97.6032°
RAAN
167.5133°
Arg. of periapsis
84.7146°
True anomaly
275.40809°
Mean anomaly
275.4308°
Eccentric anomaly
275.41944°
Mean motion
3.76657 °/min
Orbital period
95.58 mins
BSTAR
0.000011921
Loading maneuver chart data...
Computing Atmospheric mass density...
Loading historical data...
Loading historical data...
Loading historical data...
Loading historical data...
Loading historical data...
Loading historical data...
Loading historical data...

Documentation

Showing up to 5 results
|